• In Portugal
  • List of Countries
  • For 7 days
  • Water Temperature
  • Satellite Maps
  • Weather Map
  • Weather Widgets
  • user-avatar
    Login

    Hourly Weather Dipayal

    Today, 18 June, Monday

    Time Temperature Precipitation Wind Pressure Humidity
    00:00 +26°C° 0 mm 1 mps 697 mmHg 62%
    01:00 +26°C° 0 mm 1 mps 697 mmHg 62%
    02:00 +26°C° 0 mm 2 mps 697 mmHg 61%
    03:00 +26°C° 0 mm 2 mps 697 mmHg 60%
    04:00 +26°C° 0 mm 2 mps 697 mmHg 60%
    05:00 +25°C° 0 mm 2 mps 697 mmHg 59%
    06:00 +28°C° 0 mm 1 mps 697 mmHg 52%
    07:00 +32°C° 0 mm 1 mps 698 mmHg 44%
    08:00 +35°C° 0 mm 1 mps 698 mmHg 37%
    09:00 +36°C° 0 mm 1 mps 698 mmHg 34%
    10:00 +38°C° 0 mm 2 mps 698 mmHg 31%
    11:00 +39°C° 0 mm 2 mps 698 mmHg 29%
    12:00 +39°C° 0 mm 2 mps 698 mmHg 28%
    13:00 +39°C° 0 mm 2 mps 698 mmHg 27%
    14:00 +39°C° 0 mm 3 mps 697 mmHg 27%
    15:00 +38°C° 0 mm 2 mps 697 mmHg 29%
    16:00 +37°C° 0 mm 2 mps 697 mmHg 32%
    17:00 +36°C° 0 mm 2 mps 697 mmHg 35%
    18:00 +33°C° 0 mm 1 mps 697 mmHg 40%
    19:00 +31°C° 0 mm 1 mps 697 mmHg 45%
    20:00 +29°C° 0 mm 1 mps 697 mmHg 49%
    21:00 +29°C° 0 mm 1 mps 698 mmHg 50%
    22:00 +28°C° 0 mm 1 mps 698 mmHg 52%
    23:00 +28°C° 0 mm 2 mps 698 mmHg 53%

    Tomorrow, 19 June, Tuesday

    Time Temperature Precipitation Wind Pressure Humidity
    00:00 +28°C° 0 mm 2 mps 698 mmHg 53%
    01:00 +27°C° 0 mm 2 mps 697 mmHg 52%
    02:00 +27°C° 0 mm 2 mps 697 mmHg 52%
    03:00 +27°C° 0 mm 2 mps 697 mmHg 52%
    04:00 +26°C° 0 mm 2 mps 697 mmHg 51%
    05:00 +26°C° 0 mm 2 mps 697 mmHg 51%
    06:00 +29°C° 0 mm 1 mps 698 mmHg 45%
    07:00 +32°C° 0 mm 1 mps 698 mmHg 38%
    08:00 +35°C° 0 mm 1 mps 699 mmHg 32%
    09:00 +36°C° 0 mm 1 mps 699 mmHg 31%
    10:00 +38°C° 0 mm 2 mps 699 mmHg 29%
    11:00 +39°C° 0 mm 3 mps 699 mmHg 28%
    12:00 +39°C° 0 mm 2 mps 698 mmHg 28%
    13:00 +40°C° 0 mm 2 mps 698 mmHg 28%
    14:00 +40°C° 0 mm 2 mps 698 mmHg 29%
    15:00 +39°C° 0 mm 2 mps 698 mmHg 31%
    16:00 +38°C° 0 mm 2 mps 698 mmHg 34%
    17:00 +36°C° 0 mm 1 mps 697 mmHg 37%
    18:00 +34°C° 0 mm 1 mps 698 mmHg 41%
    19:00 +32°C° 0 mm 1 mps 698 mmHg 44%
    20:00 +31°C° 0 mm 1 mps 698 mmHg 48%
    21:00 +30°C° 0 mm 1 mps 698 mmHg 49%
    22:00 +30°C° 0 mm 2 mps 698 mmHg 51%
    23:00 +29°C° 0 mm 2 mps 698 mmHg 52%

    Day after tomorrow, 20 June, Wednesday

    Time Temperature Precipitation Wind Pressure Humidity
    00:00 +29°C° 0 mm 2 mps 698 mmHg 52%
    01:00 +29°C° 0 mm 2 mps 698 mmHg 53%
    02:00 +28°C° 0 mm 2 mps 698 mmHg 53%
    03:00 +28°C° 0 mm 2 mps 698 mmHg 53%
    04:00 +28°C° 0 mm 2 mps 698 mmHg 53%
    05:00 +27°C° 0 mm 2 mps 698 mmHg 53%
    06:00 +30°C° 0 mm 1 mps 698 mmHg 47%
    07:00 +33°C° 0 mm 1 mps 699 mmHg 40%
    08:00 +37°C° 0 mm 1 mps 699 mmHg 34%
    09:00 +39°C° 0 mm 1 mps 699 mmHg 32%
    10:00 +40°C° 0 mm 2 mps 699 mmHg 30%
    11:00 +41°C° 0 mm 2 mps 699 mmHg 28%
    12:00 +40°C° 0 mm 2 mps 699 mmHg 29%
    13:00 +40°C° 0 mm 2 mps 698 mmHg 31%
    14:00 +39°C° 0 mm 2 mps 698 mmHg 32%
    15:00 +39°C° 0 mm 2 mps 698 mmHg 34%
    16:00 +38°C° 0 mm 2 mps 698 mmHg 36%
    17:00 +36°C° 0 mm 1 mps 698 mmHg 38%
    18:00 +34°C° 0.1 mm 1 mps 698 mmHg 43%
    19:00 +33°C° 0.1 mm 1 mps 698 mmHg 48%
    20:00 +31°C° 0.1 mm 1 mps 699 mmHg 53%
    21:00 +30°C° 0.2 mm 2 mps 699 mmHg 54%
    22:00 +30°C° 0.2 mm 2 mps 699 mmHg 55%
    23:00 +29°C° 0.2 mm 2 mps 699 mmHg 56%

    21 June, Thursday

    Time Temperature Precipitation Wind Pressure Humidity
    00:00 +29°C° 0 mm 2 mps 698 mmHg 56%
    01:00 +29°C° 0 mm 2 mps 698 mmHg 56%
    02:00 +29°C° 0 mm 2 mps 698 mmHg 56%
    03:00 +28°C° 0 mm 2 mps 698 mmHg 55%
    04:00 +28°C° 0 mm 2 mps 698 mmHg 55%
    05:00 +28°C° 0 mm 2 mps 698 mmHg 55%
    06:00 +31°C° 0 mm 2 mps 698 mmHg 47%
    07:00 +34°C° 0 mm 1 mps 699 mmHg 40%
    08:00 +37°C° 0 mm 1 mps 699 mmHg 33%
    09:00 +39°C° 0 mm 1 mps 699 mmHg 30%
    10:00 +40°C° 0 mm 2 mps 699 mmHg 28%
    11:00 +41°C° 0 mm 2 mps 699 mmHg 26%
    12:00 +41°C° 0 mm 2 mps 698 mmHg 27%
    13:00 +42°C° 0 mm 3 mps 698 mmHg 28%
    14:00 +42°C° 0 mm 3 mps 697 mmHg 29%
    15:00 +40°C° 0 mm 2 mps 697 mmHg 31%
    16:00 +39°C° 0 mm 2 mps 697 mmHg 33%
    17:00 +37°C° 0 mm 1 mps 697 mmHg 36%
    18:00 +36°C° 0 mm 1 mps 697 mmHg 40%
    19:00 +34°C° 0 mm 1 mps 697 mmHg 45%
    20:00 +32°C° 0 mm 1 mps 698 mmHg 49%
    21:00 +31°C° 0 mm 2 mps 698 mmHg 50%
    22:00 +31°C° 0 mm 2 mps 698 mmHg 51%
    23:00 +30°C° 0 mm 2 mps 698 mmHg 52%

    22 June, Friday

    Time Temperature Precipitation Wind Pressure Humidity
    00:00 +30°C° 0 mm 2 mps 697 mmHg 51%
    01:00 +29°C° 0 mm 2 mps 697 mmHg 50%
    02:00 +29°C° 0 mm 2 mps 697 mmHg 49%
    03:00 +29°C° 0 mm 2 mps 697 mmHg 49%
    04:00 +29°C° 0 mm 2 mps 697 mmHg 48%
    05:00 +28°C° 0 mm 2 mps 697 mmHg 48%
    06:00 +32°C° 0 mm 2 mps 697 mmHg 42%
    07:00 +35°C° 0 mm 1 mps 698 mmHg 36%
    08:00 +39°C° 0 mm 1 mps 698 mmHg 31%
    09:00 +40°C° 0 mm 1 mps 698 mmHg 29%
    10:00 +41°C° 0 mm 2 mps 698 mmHg 27%
    11:00 +42°C° 0 mm 2 mps 698 mmHg 26%
    12:00 +43°C° 0 mm 3 mps 697 mmHg 26%
    13:00 +43°C° 0 mm 3 mps 697 mmHg 26%
    14:00 +43°C° 0 mm 3 mps 697 mmHg 26%
    15:00 +41°C° 0 mm 2 mps 696 mmHg 28%
    16:00 +40°C° 0 mm 2 mps 696 mmHg 31%
    17:00 +39°C° 0 mm 1 mps 696 mmHg 33%
    18:00 +36°C° 0 mm 1 mps 696 mmHg 37%
    19:00 +36°C° 0 mm 2 mps 697 mmHg 40%
    20:00 +34°C° 0 mm 2 mps 697 mmHg 44%
    21:00 +32°C° 0 mm 2 mps 697 mmHg 44%
    22:00 +32°C° 0 mm 2 mps 697 mmHg 45%
    23:00 +31°C° 0 mm 2 mps 697 mmHg 46%

    23 June, Saturday

    Time Temperature Precipitation Wind Pressure Humidity
    00:00 +31°C° 0 mm 2 mps 697 mmHg 45%
    01:00 +30°C° 0 mm 2 mps 697 mmHg 45%
    02:00 +30°C° 0 mm 2 mps 697 mmHg 45%
    03:00 +30°C° 0 mm 2 mps 697 mmHg 46%
    04:00 +29°C° 0 mm 2 mps 697 mmHg 47%
    05:00 +29°C° 0 mm 2 mps 696 mmHg 48%
    06:00 +31°C° 0 mm 1 mps 697 mmHg 44%
    07:00 +34°C° 0 mm 1 mps 697 mmHg 40%
    08:00 +37°C° 0 mm 1 mps 697 mmHg 36%
    09:00 +39°C° 0 mm 1 mps 697 mmHg 35%
    10:00 +40°C° 0 mm 2 mps 697 mmHg 34%
    11:00 +41°C° 0 mm 2 mps 697 mmHg 33%
    12:00 +42°C° 0.3 mm 3 mps 697 mmHg 34%
    13:00 +42°C° 0.3 mm 3 mps 696 mmHg 35%
    14:00 +42°C° 0.3 mm 3 mps 696 mmHg 36%
    15:00 +40°C° 0.2 mm 2 mps 696 mmHg 40%
    16:00 +39°C° 0.2 mm 2 mps 696 mmHg 44%
    17:00 +37°C° 0.2 mm 1 mps 696 mmHg 48%
    18:00 +35°C° 0.3 mm 1 mps 696 mmHg 54%
    19:00 +33°C° 0.3 mm 1 mps 696 mmHg 60%
    20:00 +32°C° 0.3 mm 1 mps 696 mmHg 66%
    21:00 +31°C° 0.2 mm 1 mps 696 mmHg 66%
    22:00 +31°C° 0.2 mm 1 mps 696 mmHg 65%
    23:00 +30°C° 0.2 mm 1 mps 697 mmHg 65%
    Show more